Location: *
(60.1759°S, 155.0663°W)
Time: 04:35:57
(UTC+00:00)

MSX - Pass Details

Date: 17 September 2019
Orbit: 894 x 907 km, 98.7° (Epoch: 23 October)

Event Time Altitude Azimuth Distance (km) Brightness Sun altitude
Exits shadow 12:42:46 17° 33° (NNE) 2,132 5.6 -25.5°
Maximum altitude 12:47:19 72° 114° (ESE) 960 4.0 -25.1°
Drops below altitude 10° 12:53:08 10° 196° (SSW) 2,616 6.6 -24.6°
Sets 12:55:34 0° 198° (SSW) 3,563 7.3 -24.4°
